Change the Weather History Date:

Friday, May 24, 2013

  Actual Average Record
Temperature  
Mean Temperature 80 °F 78 °F  
Max Temperature 86 °F 85 °F 90 °F (1966)
Min Temperature 73 °F 72 °F 65 °F (1959)
Degree Days  
Heating Degree Days 0 0  
Month to date heating degree days 0 0  
Since 1 July heating degree days 0 0  
Cooling Degree Days 15 13  
Month to date cooling degree days 281 298  
Year to date cooling degree days 1369 1405  
Growing Degree Days 30 (Base 50)    
Moisture  
Dew Point 65 °F    
Average Humidity 64    
Maximum Humidity 79    
Minimum Humidity 48    
Precipitation  
Precipitation 0.00 in 0.01 in 0.86 in (2014)
Month to date precipitation 0.41 0.51  
Year to date precipitation 8.18 7.46  
Snow  
Snow 0.00 in - - ()
Month to date snowfall 0.0  
Since 1 July snowfall 0.0  
Snow Depth 0.00 in    
Sea Level Pressure  
Sea Level Pressure 30.05 in    
Wind  
Wind Speed 9 mph (NE)    
Max Wind Speed 23 mph    
Max Gust Speed 28 mph    
Visibility 10 miles    
Events      
T = Trace of Precipitation, MM = Missing Value Source: NWS Daily Summary

Daily Weather History Graph

Daily Weather History Graph

Search for Another Location

Airport or City:

Trip Planner

Search our weather history database for the weather conditions in past years. The results will help you decide how hot, cold, wet, or windy it might be!

Date:

Astronomy

May. 24, 2013 Rise Set
Actual Time 5:50 AM HST 7:06 PM HST
Civil Twilight 5:26 AM HST 7:31 PM HST
Nautical Twilight 4:57 AM HST 8:00 PM HST
Astronomical Twilight 4:27 AM HST 8:29 PM HST
Moon 7:04 PM HST (5/24) 5:27 AM HST (5/24)
Length of Visible Light 14h 05m
Length of Day
13h 16m
Full, 100% of the Moon is Illuminated
May 24
Full
May 24
Full
May 31
Last Quarter
Jun 8
New
Jun 16
First Quarter

Hourly Weather History & Observations

Time (HST) Temp. Heat Index Dew Point Humidity Pressure Visibility Wind Dir Wind Speed Gust Speed Precip Events Conditions
12:53 AM 75.9 °F - 66.9 °F 74% 30.05 in 10.0 mi ENE 11.5 mph - N/A   Partly Cloudy
1:53 AM 75.0 °F - 66.9 °F 76% 30.04 in 10.0 mi ENE 3.5 mph - N/A   Scattered Clouds
2:53 AM 75.9 °F - 66.0 °F 71% 30.03 in 10.0 mi ENE 11.5 mph - N/A   Scattered Clouds
3:53 AM 75.0 °F - 66.0 °F 73% 30.03 in 10.0 mi Calm Calm - N/A   Scattered Clouds
4:53 AM 73.9 °F - 66.0 °F 76% 30.03 in 10.0 mi NE 9.2 mph - N/A   Scattered Clouds
5:53 AM 73.9 °F - 66.0 °F 76% 30.04 in 10.0 mi NE 9.2 mph - N/A   Scattered Clouds
6:53 AM 75.9 °F - 64.9 °F 69% 30.05 in 10.0 mi NE 4.6 mph - N/A   Scattered Clouds
7:53 AM 78.1 °F - 64.9 °F 64% 30.07 in 10.0 mi ENE 8.1 mph - N/A   Mostly Cloudy
8:53 AM 80.1 °F 81.9 °F 64.9 °F 60% 30.08 in 10.0 mi NE 5.8 mph - N/A   Scattered Clouds
9:53 AM 82.0 °F 83.8 °F 64.9 °F 56% 30.08 in 10.0 mi NE 10.4 mph - N/A   Mostly Cloudy
10:53 AM 82.9 °F 84.4 °F 64.0 °F 53% 30.07 in 10.0 mi ENE 10.4 mph - N/A   Scattered Clouds
11:53 AM 84.0 °F 84.9 °F 63.0 °F 49% 30.07 in 10.0 mi ENE 17.3 mph 26.5 mph N/A   Mostly Cloudy
12:53 PM 84.9 °F 86.6 °F 64.9 °F 51% 30.06 in 10.0 mi NNE 18.4 mph 25.3 mph N/A   Mostly Cloudy
1:53 PM 84.9 °F 86.6 °F 64.9 °F 51% 30.04 in 10.0 mi NE 12.7 mph 24.2 mph N/A   Mostly Cloudy
2:53 PM 82.0 °F 84.1 °F 66.0 °F 58% 30.03 in 10.0 mi NE 9.2 mph - N/A   Mostly Cloudy
3:53 PM 82.9 °F 84.6 °F 64.9 °F 54% 30.02 in 10.0 mi NNE 6.9 mph - N/A   Scattered Clouds
4:53 PM 81.0 °F 82.7 °F 64.9 °F 58% 30.03 in 10.0 mi NNE 13.8 mph 19.6 mph N/A   Scattered Clouds
5:53 PM 79.0 °F - 64.9 °F 62% 30.04 in 10.0 mi East 13.8 mph 21.9 mph N/A   Mostly Cloudy
6:53 PM 78.1 °F - 66.0 °F 66% 30.05 in 10.0 mi ENE 10.4 mph 18.4 mph N/A   Mostly Cloudy
7:53 PM 77.0 °F - 63.0 °F 62% 30.05 in 10.0 mi NE 6.9 mph - N/A   Scattered Clouds
8:53 PM 77.0 °F - 64.0 °F 64% 30.06 in 10.0 mi NE 8.1 mph - N/A   Scattered Clouds
9:53 PM 75.9 °F - 64.9 °F 69% 30.08 in 10.0 mi ENE 10.4 mph - N/A   Mostly Cloudy
10:53 PM 75.9 °F - 64.0 °F 67% 30.07 in 10.0 mi ENE 13.8 mph - N/A   Scattered Clouds
11:53 PM 75.9 °F - 64.0 °F 67% 30.05 in 10.0 mi NE 13.8 mph - N/A   Scattered Clouds